Find Starlink 11365

NORAD ID: 62886 Int'l Des: 2025-024 Owner: SPXS Country: US Constellation: starlink operational
LEOCIRCULAR

Live Position

Loading 3D Globe...

About Starlink 11365

Description loading...

Upcoming Passes

Passes for default location (London). Set your location on the main map for personalized predictions.

Altitude History

Loading altitude history...

Two-Line Element Set

1 62886U 25024H 26109.91480519 .00175298 00000-0 13391-2 0 9999
2 62886 43.0002 292.6562 0001998 257.4917 102.5727 15.70873442 69959
Epoch: Apr 19, 2026 • Age: 6 hours

Current Status

Altitude 357.6 km
Velocity 7.70 km/s
Sub-Earth Point -9.46°S, 12.64°E
Launch Date Feb 4, 2025
Age 1.2 years
Type internet

Technical Details

Classification Payload
Mass 960.00 kg
Dry Mass 910.00 kg
Total Mass 960.00 kg
Length 0.30 m
Diameter 4.10 m
Span 29.00 m
Shape Box + pan
Manufacturer SPXS
Bus Type Starlink V2MD
Phase Status In Orbit
Owner/State SPXS/US

Most Searched